[[{"header":{"parameterUnit":"m.s-1","parameterCategory":1,"la1":30.2991,"la2":30.254,"lo1":-89.0895,"lo2":-89.0444,"dy":0.0017,"dx":0.0017,"nx":28,"ny":28,"refTime":"2025-06-14T03:00:00:Z","depth":0,"parameterNumber":2,"parameterNumberName":"U-component_of_WINDS"},"data":[0,0,0,0,0,0,0,0,0,0,0,0,0,0,0,0,0,0,0,0,0,0,0,0,0,0,0,0,0,0,0,0,0,0,0,0,0,0,0,0,0,0,0,0,0,0,0,0,0,0,0,0,0,0,0,0,0,0,0.4065,0.4065,0,0.4111,0.4112,0.4112,0.4133,0.4133,0.4133,0.4133,0.418,0.4181,0.4182,0,0,0,0,0,0,0,0,0,0,0,0,0,0.3992,0.3993,0.4065,0.4065,0.4066,0.4111,0.4112,0.4113,0.4133,0.4133,0.4133,0.4133,0.4179,0.4181,0.4182,0,0,0,0,0,0,0,0,0,0,0,0,0,0.4029,0.3993,0.4065,0.4082,0.4084,0.4111,0.4112,0.4113,0.4133,0.4133,0.4133,0.4133,0.4179,0.4181,0.4182,0.4196,0,0,0.4188,0.4189,0,0,0,0,0,0,0,0,0.4027,0.4032,0.4079,0.4081,0.4083,0.4116,0.4103,0.4141,0.4133,0.4114,0.4133,0.4133,0.4159,0.4162,0.4171,0.4199,0.4201,0.4189,0.419,0.4191,0.4191,0,0,0,0,0,0,0,0.4024,0.403,0.4083,0.4079,0.4082,0.4086,0.4092,0.4111,0.4136,0.4116,0.4117,0.4123,0.416,0.4169,0.4172,0.4201,0.4189,0.419,0.4192,0.4192,0.4241,0.4241,0,0,0,0,0,0,0.4019,0.4028,0.4082,0.4085,0.4054,0.4088,0.4094,0.4106,0.4136,0.4141,0.4123,0.4124,0.4166,0.417,0.4174,0.4192,0.4191,0.4192,0.4194,0.4241,0.4241,0.4241,0,0,0,0,0,0,0.4018,0.4024,0.408,0.4057,0.4064,0.4089,0.4102,0.4107,0.4116,0.4141,0.4146,0.4128,0.4166,0.4171,0.419,0.4194,0.4193,0.4195,0.4241,0.4241,0.4241,0.4227,0,0,0,0,0,0,0.4015,0.4023,0.4029,0.4057,0.4065,0.4096,0.4103,0.4108,0.412,0.4121,0.4147,0.4152,0.4166,0.4187,0.4192,0.4196,0.4197,0.4241,0.4241,0.4241,0.4227,0.4227,0.4226,0,0,0,0,0,0.4013,0.4024,0.403,0.4036,0.4074,0.4096,0.4101,0.4118,0.412,0.4126,0.4142,0.4151,0.4192,0.4189,0.4195,0.4199,0.4241,0.4241,0.4241,0.4228,0.4227,0.4226,0,0,0,0,0,0,0.3996,0.4028,0.4035,0.4055,0.4073,0.41,0.4108,0.4117,0.4135,0.4135,0.4155,0.4161,0.4178,0.4191,0.4187,0.4214,0.4217,0.4219,0.4205,0.4204,0.4204,0.42,0.4198,0,0,0,0,0,0.3995,0.4011,0.4038,0.4053,0.4061,0.4083,0.4093,0.4105,0.4124,0.4132,0.4149,0.4167,0.4184,0.4195,0.4212,0.4229,0.4235,0.4235,0.4234,0.4234,0.4235,0.4244,0.4244,0.4242,0.4242,0.4242,0,0,0.3992,0.4012,0.4021,0.405,0.4065,0.4081,0.4089,0.4106,0.4117,0.4134,0.4153,0.4166,0.4188,0.4206,0.4214,0.4217,0.4236,0.4234,0.4233,0.4235,0.4244,0.4244,0.4244,0.4242,0.4242,0.4242,0,0,0.3996,0.4012,0.4026,0.4041,0.4064,0.4078,0.4081,0.4107,0.4116,0.4135,0.4148,0.4162,0.4191,0.4205,0.4216,0.4223,0.4232,0.4228,0.4225,0.4234,0.4234,0.4234,0.4236,0.4236,0.4229,0.4229,0.4229,0,0.399,0.4015,0.4032,0.4048,0.406,0.4075,0.4089,0.4102,0.4129,0.4137,0.4139,0.4175,0.4191,0.4212,0.4213,0.4222,0.4226,0.4225,0.4232,0.4233,0.4233,0.4235,0.4236,0.4228,0.4228,0.4228,0.4228,0,0.4005,0.4022,0.4031,0.4056,0.4069,0.4084,0.4103,0.4113,0.4123,0.4136,0.4155,0.4174,0.4195,0.4201,0.4211,0.4223,0.4223,0.4229,0.4232,0.4232,0.4234,0.4235,0.4227,0.4228,0.4228,0.4228,0,0,0.4001,0.4035,0.4038,0.4049,0.4075,0.4088,0.4102,0.4122,0.4131,0.4148,0.4161,0.4184,0.4189,0.4201,0.4213,0.422,0.4223,0.4225,0.4225,0.4223,0.4237,0.4233,0.4233,0.4229,0.4229,0.423,0.4235,0,0.4007,0.4035,0.405,0.4071,0.4086,0.41,0.4113,0.4129,0.4142,0.4156,0.417,0.4186,0.4191,0.4199,0.4207,0.4221,0.4226,0.4221,0.424,0.4241,0.4235,0.4235,0.4231,0.4235,0.4236,0.4236,0.4236,0,0.4019,0.4036,0.4058,0.4081,0.4088,0.4099,0.4118,0.4132,0.415,0.4159,0.4172,0.4183,0.4198,0.42,0.4221,0.4217,0.4225,0.4233,0.4234,0.4237,0.4239,0.4237,0.4237,0.4237,0.4238,0.4238,0.4238,0,0.4013,0.4041,0.4058,0.4067,0.4094,0.4101,0.4113,0.4131,0.4142,0.4159,0.4165,0.4183,0.4193,0.4206,0.4222,0.4222,0.424,0.4244,0.4247,0.4247,0.4251,0.425,0.4252,0.4256,0.4256,0.4256,0.4256,0,0.4018,0.4031,0.4055,0.4066,0.408,0.4097,0.411,0.4123,0.4139,0.4151,0.4165,0.4176,0.4195,0.4209,0.422,0.4235,0.424,0.4246,0.4249,0.4245,0.4244,0.4251,0.4251,0.4257,0.4256,0.4256,0.4256,0,0.4014,0.4031,0.405,0.4073,0.4079,0.4089,0.4109,0.4119,0.4131,0.4147,0.4151,0.4171,0.4187,0.4204,0.4226,0.4234,0.4248,0.4252,0.4242,0.4243,0.4246,0.4245,0.4252,0.4253,0.4257,0.4257,0.4257,0,0.4017,0.4027,0.4051,0.406,0.4071,0.4086,0.4097,0.4114,0.4124,0.4145,0.4152,0.417,0.4184,0.4209,0.4226,0.4242,0.4247,0.4248,0.4249,0.4244,0.4246,0.4245,0.4246,0.4247,0.4247,0.4247,0.4247,0,0.4019,0.4026,0.4042,0.4059,0.4072,0.4087,0.4102,0.4108,0.4128,0.4139,0.4156,0.4167,0.4189,0.4205,0.4224,0.4235,0.4244,0.4246,0.4248,0.4243,0.4237,0.424,0.424,0.4246,0.4246,0.4246,0.4246,0.4246,0.4018,0.4027,0.4045,0.4062,0.4075,0.4088,0.4098,0.4112,0.4126,0.4146,0.4154,0.4171,0.4188,0.4213,0.4224,0.4237,0.4239,0.4242,0.4242,0.4243,0.4241,0.4235,0.424,0.424,0.424,0.424,0.424,0,0.4021,0.4033,0.4047,0.4068,0.408,0.4087,0.4104,0.4114,0.4128,0.4144,0.4157,0.4176,0.4192,0.4209,0.4225,0.4232,0.4237,0.4236,0.4236,0.4238,0.4238,0.4235,0.4232,0.4232,0.4232,0.4232,0.4232,0.4232,0.4023,0.4039,0.4048,0.407,0.4082,0.4099,0.4107,0.412,0.4132,0.4152,0.4165,0.4176,0.4191,0.4209,0.4224,0.4228,0.4233,0.4232,0.4237,0.4237,0.4238,0.4239,0.4236,0.4233,0.4233,0.4236,0.4236,0.4236]},{"header":{"parameterUnit":"m.s-1","parameterCategory":1,"la1":30.2991,"la2":30.254,"lo1":-89.0895,"lo2":-89.0444,"dy":0.0017,"dx":0.0017,"nx":28,"ny":28,"refTime":"2025-06-14T03:00:00:Z","depth":0,"parameterNumber":3,"parameterNumberName":"V-component_of_WINDS"},"data":[0,0,0,0,0,0,0,0,0,0,0,0,0,0,0,0,0,0,0,0,0,0,0,0,0,0,0,0,0,0,0,0,0,0,0,0,0,0,0,0,0,0,0,0,0,0,0,0,0,0,0,0,0,0,0,0,0,0,3.0021,3.0021,0,3.0096,3.0097,3.0097,3.0065,3.0063,3.0061,3.006,3.0133,3.0137,3.014,0,0,0,0,0,0,0,0,0,0,0,0,0,2.9844,2.9848,3.002,3.0021,3.0022,3.0096,3.0097,3.0098,3.0065,3.0063,3.0061,3.0059,3.0132,3.0136,3.0141,0,0,0,0,0,0,0,0,0,0,0,0,0,2.992,2.9849,3.002,3.0015,3.0015,3.0095,3.0097,3.0098,3.0066,3.0063,3.006,3.0058,3.0131,3.0136,3.0141,3.023,0,0,3.0158,3.0161,0,0,0,0,0,0,0,0,2.9916,2.9927,3.0015,3.0016,3.0016,3.0068,3.0062,3.0142,3.0066,3.0047,3.006,3.0056,3.0114,3.012,3.014,3.0233,3.0237,3.0159,3.0162,3.0164,3.0166,0,0,0,0,0,0,0,2.9911,2.9923,3.005,3.0016,3.0017,3.0008,3.0015,3.0077,3.0094,3.0048,3.0046,3.0055,3.0113,3.0135,3.0142,3.0238,3.0159,3.0163,3.0167,3.0169,3.0405,3.0408,0,0,0,0,0,0,2.9906,2.9919,3.0048,3.0052,2.9958,3.0013,3.0022,3.0054,3.0094,3.0097,3.0058,3.0054,3.0127,3.0135,3.0144,3.0249,3.0164,3.0169,3.0173,3.0402,3.0406,3.0409,0,0,0,0,0,0,2.9902,2.9918,3.0045,2.9985,3.0001,3.0019,3.0056,3.0057,3.0079,3.0101,3.0104,3.0077,3.0125,3.0137,3.0209,3.0252,3.0172,3.0177,3.0399,3.0403,3.0407,3.0461,0,0,0,0,0,0,2.9897,2.9917,2.9952,2.9986,3.0004,3.0109,3.0058,3.0061,3.0089,3.0084,3.012,3.0123,3.0124,3.0201,3.0214,3.0258,3.0181,3.0395,3.0401,3.0406,3.0456,3.0467,3.0477,0,0,0,0,0,2.9891,2.9963,2.9954,2.9969,3.0048,3.0112,3.0122,3.0123,3.0093,3.0127,3.0141,3.0122,3.0245,3.0208,3.0223,3.0269,3.0392,3.0399,3.0406,3.0451,3.0465,3.0476,0,0,0,0,0,0,2.9933,2.9968,2.9957,3.0043,3.0075,3.0106,3.015,3.0137,3.0178,3.0171,3.017,3.0178,3.0252,3.0268,3.0227,3.0356,3.0314,3.0324,3.0343,3.0356,3.0367,3.0361,3.0186,0,0,0,0,0,2.9952,3.0002,3.003,3.0102,3.0119,3.0132,3.016,3.0157,3.019,3.0203,3.0222,3.0253,3.0298,3.0328,3.0371,3.0458,3.0464,3.0496,3.0507,3.0515,3.0524,3.0569,3.0583,3.0431,3.0431,3.0431,0,0,2.9992,3.0017,3.0049,3.0111,3.0136,3.0186,3.0143,3.0199,3.0235,3.0211,3.028,3.0295,3.0329,3.0409,3.0445,3.0424,3.0567,3.0524,3.0531,3.0534,3.0577,3.0592,3.0605,3.0436,3.0435,3.0434,0,0,3.009,3.0115,3.0178,3.0203,3.0241,3.0249,3.0264,3.0297,3.0306,3.0376,3.0358,3.0401,3.048,3.0505,3.0528,3.0634,3.0617,3.0648,3.0703,3.0747,3.0759,3.0769,3.0806,3.0819,3.0657,3.0657,3.0657,0,3.0135,3.0211,3.0212,3.0268,3.0296,3.0276,3.0339,3.0363,3.0412,3.0431,3.0407,3.0505,3.0527,3.0611,3.0637,3.0656,3.0672,3.0644,3.0757,3.0768,3.0778,3.0813,3.0827,3.066,3.066,3.0659,3.0659,0,3.0263,3.0317,3.0363,3.0411,3.0444,3.0503,3.0511,3.0544,3.0538,3.0548,3.0618,3.0644,3.0691,3.0711,3.0706,3.0794,3.078,3.0757,3.0715,3.0796,3.0828,3.0842,3.0665,3.0664,3.0663,3.0662,0,0,3.039,3.0438,3.0455,3.0476,3.0516,3.0556,3.0614,3.0661,3.0688,3.0722,3.0769,3.0836,3.0815,3.0841,3.0838,3.0877,3.0958,3.0849,3.085,3.0868,3.1055,3.1072,3.1087,3.0948,3.095,3.0952,3.1052,0,3.0491,3.0593,3.0595,3.0688,3.0736,3.0718,3.0768,3.0796,3.0807,3.0848,3.0859,3.0906,3.0875,3.089,3.0928,3.0941,3.0996,3.0934,3.099,3.0992,3.0982,3.1105,3.1123,3.1215,3.1065,3.1067,3.1069,0,3.0622,3.0661,3.0759,3.0791,3.0811,3.0856,3.0899,3.0939,3.097,3.0975,3.1004,3.0995,3.1052,3.1008,3.1086,3.1043,3.1066,3.1076,3.108,3.1084,3.1035,3.1112,3.1245,3.1259,3.1089,3.1087,3.1086,0,3.0703,3.078,3.0849,3.0868,3.0906,3.0938,3.0955,3.0984,3.1012,3.1049,3.1066,3.1109,3.1132,3.1165,3.1167,3.1135,3.1245,3.1202,3.1249,3.1249,3.1273,3.1271,3.1411,3.1289,3.1289,3.1289,3.1288,0,3.0815,3.0875,3.0886,3.0928,3.0994,3.0995,3.106,3.1075,3.11,3.1144,3.113,3.1171,3.1172,3.1213,3.1216,3.1279,3.1289,3.1294,3.1293,3.1295,3.1294,3.1309,3.1303,3.1292,3.1292,3.1291,3.129,0,3.0917,3.0926,3.0999,3.103,3.1039,3.1087,3.1112,3.1151,3.116,3.1215,3.1228,3.1242,3.1289,3.1295,3.1351,3.1352,3.1428,3.1421,3.1417,3.1416,3.1463,3.1458,3.1617,3.1637,3.1503,3.1504,3.1505,0,3.0987,3.1033,3.1068,3.1097,3.1116,3.1162,3.1191,3.1192,3.1222,3.1261,3.1295,3.1341,3.1379,3.1455,3.1469,3.1511,3.1505,3.1558,3.1511,3.151,3.1504,3.1501,3.1505,3.1566,3.1568,3.1569,3.157,0,3.111,3.1112,3.1154,3.1198,3.1232,3.1266,3.1298,3.1322,3.1327,3.1361,3.141,3.1439,3.1496,3.1541,3.1583,3.1599,3.1585,3.1585,3.1598,3.1599,3.1595,3.1596,3.1441,3.1581,3.158,3.1579,3.1578,3.1578,3.1198,3.1237,3.1268,3.1315,3.1339,3.1369,3.1407,3.1421,3.1462,3.1509,3.1507,3.1561,3.1589,3.1644,3.1663,3.1704,3.1686,3.1705,3.171,3.1714,3.1719,3.1589,3.1711,3.1711,3.1711,3.171,3.171,0,3.1319,3.1338,3.1381,3.1427,3.1463,3.1448,3.1482,3.1513,3.1561,3.1589,3.1626,3.1682,3.1726,3.1743,3.1786,3.1815,3.181,3.1826,3.1823,3.1827,3.1732,3.1717,3.183,3.183,3.183,3.183,3.183,3.1829,3.1387,3.1453,3.1459,3.1536,3.1554,3.1607,3.1628,3.1655,3.1677,3.174,3.1777,3.1788,3.1812,3.1856,3.1895,3.1899,3.1915,3.1934,3.1935,3.1846,3.1834,3.1822,3.1807,3.1938,3.1938,3.2026,3.2027,3.2027]}]]